Location: Unspecified
(50.7693°N, 0.0000°E)
Time: 06:14:29
(UTC+00:00)

Transit 2A - Pass Details

Date: 29 June 2019
Orbit: 600 x 959 km, 66.7° (Epoch: 13 October)

Event Time Altitude Azimuth Distance (km) Brightness Sun altitude
Rises 03:23:29 0° 304° (NW) 3,589 9.3 -3.9°
Reaches altitude 10° 03:27:07 10° 324° (NW) 2,595 8.9 -3.5°
Maximum altitude 03:30:54 17° 3° (N) 2,080 9.0 -3.0°
Drops below altitude 10° 03:34:32 10° 43° (NE) 2,455 10.7 -2.6°
Sets 03:37:50 0° 64° (ENE) 3,312 11.2 -2.2°
